Showing default

QIANFAN-45, 62246

Orbit data source: Space-Track

QIANFAN-45, 62246 is a Chinese payload satellite in LEO that was launched on Thu, 05 Dec 2024 UTC via a CHANG ZHENG 6A launch vehicle from the Taiyaun Space Center, China (TSC). Payload-class satellites include a variety of spacecraft equipped with specific instruments for various scientific and technological missions. These include communications satellites like Starlink; space stations such as the ISS; scientific satellites like the Hubble; Earth observation satellites from companies like Planet Labs, Umbra, and HawkEye 360; GPS; miniature CubeSats for education and research; and military/defense satellites.

Loading next visibility...
Identifier
62246, 2024-232K
Orbit
LEO
Country
Flag of CNCN / PRC
Related business
Manufacturer
SECM
Mission
Operational Commercial Communications
Bus & Motor
QIANFAN, Unknown motor
Mass
267 kg wet, ~267 kg dry
Launch date (UTC)
2024-12-05 (2 years ago)
Launch vehicle
CHANG ZHENG 6A
Launch site
Taiyaun Space Center, China (TSC)
Object type
Payload
Rocket body
Debris
Shape & HBR
Box + 1 Pan, 5.0 m
Radar Cross Section
13.200 m², Large (>1 m²)

Expand to show TLE details & history
Last TLE update: 9 hours ago

TLE from 9 hours ago
0 QIANFAN-45
1 62246U 24232K   26246.85831274  .00000081  00000-0  10610-3 0  9991
2 62246  89.0147  14.6166 0015773 142.4179 217.8078 13.51026372135053
Epoch: 2026-09-03T20:35Z
TLE epoch observation values (Epoch: 2026-09-03T20:35:58.220Z)
Latitude
-0.00001°
Longitude
82.63356°
Altitude
1,080.727 km
Speed
7.307 km/s
True Right ascension
00h 58m 27s
True Declination
0° 00' 00"
Sunlit
Object was in full shadow at epoch
Visualization orbit readout
Latitude
Unknown
Longitude
Unknown
Altitude
Unknown
Speed
Unknown
Apparent Right ascension
Unknown
Apparent Declination
Unknown
Sunlit
N/A
Visualization observer readout
Local Sidereal Time
21:06:13
Azimuth
Unknown
Elevation
Unknown
Doppler factor
Unknown
Orbital elements
Apogee altitude
1,077.276 km
Perigee altitude
1,053.795 km
Semi-major axis
7,443.673 km
Eccentricity
0.00158
Inclination
89.0147°
RAAN
14.6166°
Arg. of periapsis
142.4179°
True anomaly
217.69717°
Mean anomaly
217.8078°
Eccentric anomaly
217.75247°
Mean motion
3.37958 °/min
Orbital period
106.52 mins
BSTAR
0.0001061
Loading maneuver chart data...
Computing Atmospheric mass density...
Loading historical data...
Loading historical data...
Loading historical data...
Loading historical data...
Loading historical data...
Loading historical data...
Loading historical data...

Documentation

Showing up to 5 results
|